www.pogodaiklimat.ru

Погода и климат >> Архив погоды >> Буркина-Фасо >> Dedougou


ПОГОДА в Dedougou

  • Прогноз погоды в Dedougou
  • Монитор погоды в Dedougou
  • Климат города

АРХИВ ПОГОДЫ в Dedougou

Время (UTC), дата Ветер
(напр.,м/с)
 
Видим.   Явления Облачность Т
(С)
Тd
(С)
f
(%)
Тe
(С)
Тes
(С)
Комфортность P
(гПа)
Po
(гПа)
Тmin
(С)
Tmax
(С)
R
(мм)
S
(см)
06 17.03 В 1 10 км 9/0
[Ci sp]
+25.1 -1.1 18 +23 +23 комфорт 1005.5 972.6 +25.1
09 17.03 ЮВ 2 15 км 9/0
[Ci sp]
+34.5 -1.1 10 +31 +38 жарко 1006.8 974.2
12 17.03 В 2 15 км 9/0
[Ci sp]
+41.1 -3.0 6 +37 +54 опасность
солнечного
удара
1005.4 973.0
15 17.03 ЮВ 2 15 км 9/0
[Ci sp]
+41.5 -3.3 6 +37 +47 очень
жарко
1003.6 971.2
18 17.03 Ю 2 15 км 9/0
[Ci sp]
+39.3 -1.6 8 +35 +35 очень
жарко
1004.0 971.3 +42.9
21 17.03 ЮВ 2 10 км 9/0
[Ci sp]
+34.3 -0.2 11 +31 +31 жарко 1005.4 972.9
00 18.03 ЮВ 2 10 км 9/0
[Ci sp]
+32.0 -2.6 11 +28 +28 жарко 1006.0 973.6
03 18.03 ЮВ 3 10 км 9/0
[Ci sp]
+29.8 -3.1 12 +27 +27 жарко 1004.7 972.3
06 18.03 Ю 3 10 км 9/0
[Ci sp]
+27.5 +2.3 20 +26 +26 жарко 1005.3 972.6 +27.3
09 18.03 ЮЗ 4 15 км 9/0
[Ci sp]
+33.4 +15.5 34 +35 +40 душно 1006.7 974.1
12 18.03 Ю 3 15 км 9/0
[Ci sp]
+39.0 +15.4 25 +40 +55 опасность
солнечного
удара
1005.7 973.3
15 18.03 ЮВ 2 15 км 9/1 600 м
[Sc Ci sp]
+41.2 +5.9 12 +39 +47 очень
жарко
1003.0 970.7
18 18.03 Ю 3 15 км 9/1 600 м
[Sc Ci sp]
+39.5 +9.0 16 +38 +38 очень
жарко
1003.4 970.8 +43.0
21 18.03 Ю 3 10 км 9/0
[Ci sp]
+35.5 +10.3 22 +35 +35 очень
жарко
1006.0 973.4
00 19.03 Ю 3 10 км 9/0
[Ci sp]
+33.0 +11.2 26 +33 +33 жарко 1006.4 974.0
03 19.03 ЮЗ 1 10 км 9/0
[Ci sp]
+29.5 +13.8 38 +31 +31 жарко 1005.2 972.8
06 19.03 ЮЗ 2 10 км 9/0
[Ci sp]
+29.4 +13.9 39 +31 +31 жарко 1006.5 973.9 +29.4
09 19.03 ЮЗ 5 15 км 9/0
[Ci sp]
+34.0 +16.2 35 +37 +41 очень
душно
1008.5 975.9
12 19.03 ЮЗ 4 15 км 9/1 600 м
[Sc Ci sp]
+39.0 +17.1 28 +42 +52 опасность
перегрева
1007.2 974.7
15 19.03 ЮВ 1 15 км 9/4 600 м
[Cu Sc Ci sp]
+41.0 +12.2 18 +40 +47 очень
жарко
1004.5 972.1
18 19.03 ЮЗ 3 15 км 9/3 600 м
[Cu Sc Ac trans Ci sp]
+37.6 +13.9 24 +38 +38 очень
жарко
1004.3 971.7 +42.0
21 19.03 СВ 3 10 км 9/0
[Ac trans Ci sp]
+33.8 +14.2 31 +35 +35 очень
жарко
1007.5 974.9
00 20.03 ЮЗ 1 10 км 9/0
[Ac trans Ci sp]
+32.0 +14.4 34 +34 +34 душно 1007.3 974.8
03 20.03 СЗ 2 10 км 9/0
[Ac trans Ci sp]
+30.5 +14.4 38 +33 +33 душно 1006.5 974.0
06 20.03 С 2 10 км 9/0
[Ac trans Ci sp]
+32.0 +16.8 40 +31 +31 жарко 1007.5 975.0 +30.3
09 20.03 ЮЗ 6 15 км 9/0
[Ac As Ci sp]
+30.1 +18.8 51 +35 +37 очень
душно
1012.7 979.7
12 20.03 ЮЗ 5 15 км 9/0
[Ac trans Ci sp]
+32.8 +17.9 41 +37 +44 очень
душно
1012.4 979.5
15 20.03 З 4 15 км 9/0
[Ac trans Ci sp]
+34.0 +16.4 35 +37 +41 очень
душно
1009.1 976.2
18 20.03 З 2 15 км 9/0
[Ac trans Ci sp]
+34.6 +17.8 37 +38 +38 очень
душно
1008.2 975.4 +35.6
21 20.03 ЮВ 1 10 км 9/0
[Ac trans Ci sp]
+31.1 +19.8 51 +37 +37 очень
душно
1009.5 976.4
00 21.03 С 1 10 км 9/0
[Ci sp]
+30.6 +18.0 47 +31 +31 жарко 1009.9 977.0
03 21.03 ЮЗ 1 10 км 9/0
[Ac trans Ci sp]
+28.0 +14.3 43 +30 +30 жарко 1009.1 976.0
06 21.03 С 1 10 км 9/0
[Ci sp]
+26.6 +10.8 37 +27 +27 жарко 1009.2 976.1 +26.6
09 21.03 СВ 5 2000 м пыль 9/0
[Ci sp]
+31.2 +7.0 22 +30 +34 жарко 1010.7 977.7
12 21.03 СВ 3 2000 м пыль 9/0
[Ci sp]
+36.6 +7.1 16 +34 +49 очень
жарко
1009.5 976.8
15 21.03 СВ 3 3500 м пыль 9/0
[Ci sp]
+38.0 +5.2 13 +35 +43 очень
жарко
1006.7 973.9
18 21.03 С 4 4500 м пыль 9/0
[Ci sp]
+36.5 +6.3 16 +34 +34 очень
жарко
1006.9 974.0 +39.0
21 21.03 С 2 4500 м пыль 9/0
[Ci sp]
+33.0 +7.7 21 +31 +31 жарко 1009.0 976.1
00 22.03 С 3 4500 м пыль 9/0
[Ci sp]
+30.2 +7.5 24 +29 +29 жарко 1009.1 976.3
03 22.03 С 3 6000 м пыль 9/0
[Ci sp]
+28.5 +6.2 24 +27 +27 жарко 1007.2 974.5
06 22.03 С 1 8000 м пыль 9/0
[Ci sp]
+26.1 +10.1 37 +27 +27 жарко 1008.1 975.1 +26.1
09 22.03 С 2 10 км 9/0
[Ci sp]
+31.4 +3.5 17 +29 +37 жарко 1010.0 977.1
12 22.03 С 2 10 км 9/0
[Ci sp]
+37.0 +3.9 13 +34 +51 опасность
солнечного
удара
1008.9 976.1
15 22.03 С 2 10 км 9/0
[Ci sp]
+40.0 +5.5 12 +37 +47 очень
жарко
1005.6 973.0
18 22.03 СЗ 2 10 км 9/0
[Ci sp]
+38.7 +5.3 13 +36 +36 очень
жарко
1005.8 973.1 +41.8
21 22.03 С 1 10 км 9/0
[Ci sp]
+34.1 +7.4 19 +32 +32 жарко 1007.4 974.6
00 23.03 С 2 10 км 9/0
[Ci sp]
+32.0 +3.4 16 +29 +29 жарко 1008.5 975.9
03 23.03 С 1 10 км 9/0
[Ci sp]
+28.1 +6.7 26 +27 +27 жарко 1007.4 974.7
06 23.03 штиль 0 10 км 9/0
[Ci sp]
+26.9 +5.1 25 +26 +26 жарко 1007.9 975.1 +26.7
09 23.03 СВ 3 10 км 9/0
[Ci sp]
+32.1 +0.5 13 +29 +35 жарко 1010.4 977.5
12 23.03 СВ 2 10 км 9/0
[Ci sp]
+37.6 -0.9 9 +34 +51 опасность
солнечного
удара
1009.1 976.5
15 23.03 ЮВ 3 15 км 9/0
[Ci sp]
+40.0 +4.0 11 +37 +45 очень
жарко
1005.8 973.2
18 23.03 СВ 2 15 км 9/0
[Ci sp]
+38.0 +5.9 14 +35 +35 очень
жарко
1005.5 972.7 +41.0
21 23.03 СВ 2 10 км 9/0
[Ci sp]
+33.2 +4.9 17 +31 +31 жарко 1007.7 974.9
00 24.03 СВ 3 10 км 9/0
[Ci sp]
+31.5 +2.2 15 +29 +29 жарко 1008.8 976.1
03 24.03 штиль 0 10 км 9/0
[Ci sp]
+27.4 +9.1 32 +28 +28 жарко 1007.6 974.9

 

Местоположение метеостанции Dedougou (Буркина-Фасо): широта 12.47 долгота -3.48 высота над уровнем моря 300 м.

В архиве по умолчанию представлена погода в Dedougou за последнюю неделю. Архивные данные за месяц целиком и за предыдущие месяцы, начиная с января 2011 года, Вы можете получить, выбрав интересующий диапазон дат из раскрывающегося списка и нажав кнопку "Ввод!".

Внимание! Время в таблицах - всемирное. Для получения местного времени необходимо прибавить поправку, которая в Dedougou равна 0 ч.

Смотрите также архив погоды в соседних городах и на ближайших метеорологических станциях:

Погода в Boromo (Буркина-Фасо) (100 км)
Погода в Ouahigouya (Буркина-Фасо) (168 км)
Погода в Bobo-Dioulasso (Буркина-Фасо) (171 км)
Погода в San (Мали) (175 км)
Погода в Ouagadougou (Буркина-Фасо) (213 км)
Погода в Koutiala (Мали) (216 км)
Погода в Mopti (Мали) (238 км)
Погода в Gaoua (Буркина-Фасо) (240 км)
Погода в Sikasso (Мали) (270 км)
Погода в Wa (Гана) (290 км)

Пояснения к столбцам:

Ветер - указаны скорость ветра в м/с - средняя за 10 мин, порывы в срок и между сроками (в фигурных скобках) и направление, откуда дует ветер: С - северный, СВ - северо-восточный, В - восточный, ЮВ - юго-восточный, Ю - южный, ЮЗ - юго-западный, З - западный, СЗ - северо-западный.
Видимость - горизонтальная дальность видимости в метрах или километрах. При видимости от 1 до 10 км при отсутствии осадков обычно наблюдается дымка, при ухудшении видимости до 1 км и менее - туман. В сухую погоду видимость может ухудшаться дымом, пылью или мглою.
Явления - указаны атмосферные явления, наблюдавшиеся в срок или в последний час перед сроком; фигурными скобками обозначены явления, наблюдавшиеся между сроками (за 1-3 часа до срока); квадратными скобками обозначены град или гололедные отложения с указанием их диаметра в мм.
Облачность - указаны через наклонную черту общая и нижняя облачность в баллах и высота нижней границы облаков в метрах; квадратными скобками обозначены формы облаков: Ci - перистые, Cs - перисто-слоистые, Cc - перисто-кучевые, Ac - высококучевые, As - высокослоистые, Sc - слоисто-кучевые, Ns - слоисто-дождевые, Cu - кучевые, Cb - кучево-дождевые. Подробнее классификацию облаков см. в Атласе облаков (PDF).
T - Температура воздуха - температура, измеренная на высоте 2 м над землей.
Td - Температура точки росы - температура, при понижении до которой содержащийся в воздухе водяной пар достигнет насыщения.
f - Относительная влажность воздуха - влажноcть воздуха, измеренная на высоте 2 м над землей.
Te - Эффективная температура - температура, которую ощущает одетый по сезону человек в тени. Характеристика душности погоды. При расчете учитывается влияние влажности воздуха и скорости ветра на теплоощущения человека.
Tes - Эффективная температура на солнце - температура, которую ощущает человек, с поправкой на солнечный нагрев. Характеристика знойности погоды. Зависит от высоты солнца над горизонтом, облачности и скорости ветра. Ночью, в пасмурную погоду, а также при ветре 12 м/с и более поправка равна нулю.
P - Атмосферное давление - приведенное к уровню моря атмосферное давление.
Po - Атмосферное давление - измеренное на уровне метеостанции атмосферное давление.
Tmin - Минимальная температура - минимум температуры воздуха на высоте 2 м над землей.
Tmax - Максимальная температура - максимум температуры воздуха на высоте 2 м над землей.
R - Количество осадков - Количество выпавших осадков, мм. При наведении курсора мыши на число - период времени, за который выпало указанное количество осадков.
S - Снежный покров - Высота снежного покрова, см. При наведении курсора мыши на число - состояние снежного покрова и степень покрытия местности в баллах.